Tracking 17630 objects as of 24-May-2016
HD Live streaming from Space Station
objects crossing your sky now

INSAT 1C

Track INSAT 1C now!
INSAT 1C is classified as:


NORAD ID: 19330
Int'l Code: 1988-063A
Perigee: 35,840.4 km
Apogee: 35,899.8 km
Inclination: 15.0 °
Period: 1,440.0 minutes
Semi major axis: 42241 km
RCS: 1.9952 m2 (large)
Launch date: July 21, 1988
Source: India (IND)
Launch site: FRENCH GUIANA (FRGUI)
Your satellite tracking list
Your tracking list is empty





NASA's NSSDC Master Catalog

Two Line Element Set (TLE):
1 19330U 88063A   16144.63269840  .00000048  00000-0  00000+0 0  9996
2 19330  14.9902   0.3324 0007029  83.1393  81.9972  1.00279684 83341
Source of the keplerian elements: AFSPC

N2YO: 495